Tracking 25701 objects as of 4-Jul-2022
HD Live streaming from Space Station
objects crossing your sky now

FENGYUN 1C DEB

Track FENGYUN 1C DEB now!
10-day predictions


NORAD ID: 37714
Int'l Code: 1999-025EMF
Perigee: 800.8 km
Apogee: 895.2 km
Inclination: 98.9 °
Period: 101.7 minutes
Semi major axis: 7218 km
RCS: 0.001 m2 (small)
Launch date: May 10, 1999
Source: People's Republic of China (PRC)
Launch site: Taiyaun Space Center, China (TSC)

Note: This is SATELLITE DEBRIS
aabbcc
Your satellite tracking list
Your tracking list is empty




NASA's NSSDC Master Catalog

Two Line Element Set (TLE):
1 37714U 99025EMF 22182.96134143  .00001245  00000-0  64733-3 0  9991
2 37714  98.9034 267.9025 0065386 108.4670 252.3624 14.15430350396011
Source of the keplerian elements: AFSPC